STARLINK-11274 [DTC]

Last updated on Sun Oct 06 2024 00:02:04 GMT+0000 (Coordinated Universal Time)

1 61001U 24158M 24279.32690828 -.00011938 00000+0 -69215-4 0 9990 2 61001 53.1581 326.6095 0002636 146.5800 213.5387 15.76662570 5857
UTC large
Height (km)
Speed (km/s)
/
Latitude / Longitude
Inclination (degrees)
Orbital Period (minutes)
Azimuth
Elevation
Range (km)
Doppler Factor

Next 0 passes for location: London (51.5072 / 0.1276)

Sorry there are no passes over London.